Location: Homewood
(41.1836°S, 175.9581°E)
Time: 03:58:39
(UTC+00:00)

Meteor 1-4 Rocket - Pass Details

Date: 18 April 2024
Orbit: 366 x 388 km, 81.2° (Epoch: 22 May)

Event Time Altitude Azimuth Distance (km) Brightness Sun altitude
Rises 16:16:32 0° 155° (SSE) 2,365 6.5 -29.6°
Enters shadow 17:37:28 -28° 192° (SSW) 6,780 8.3 -14.4°
Maximum altitude 17:53:36 77° 277° (W) 433 2.1 -11.4°
